Wind_Speed
12 12 13 14 14 13 13 13 12 12 11 11 11 11 11 11 12 13 13 14 14 14 15 16 17 16 16 15 14 13 13 13 12 13 12 12 12 12 12 13 12 12 13
12 13 13 13 13 13 13 13 12 12 11 11 10 9 9 10 11 13 13 14 14 15 16 16 17 18 18 17 16 15 14 14 13 13 13 12 12 13 12 12 13 12 12
12 13 13 13 13 13 13 13 12 11 11 10 9 9 9 9 10 12 13 14 14 15 16 17 17 18 18 18 17 16 15 15 15 14 14 14 13 13 14 13 13 12 12
12 13 13 14 14 14 14 13 12 11 10 10 9 9 8 8 9 11 12 13 14 16 17 17 18 18 19 18 18 18 17 17 16 16 16 15 15 15 14 14 13 12 12
12 13 14 14 14 14 14 13 12 11 11 10 9 8 8 7 8 10 12 13 13 15 17 18 18 18 18 19 18 19 18 18 18 18 17 17 16 16 15 15 14 13 12
13 14 14 14 15 14 14 13 13 12 11 10 9 8 7 7 8 9 11 13 13 14 16 17 18 19 18 18 19 19 19 19 19 19 19 18 18 17 17 16 15 14 14
13 14 14 15 15 15 14 13 13 12 12 11 9 8 7 7 8 9 11 12 13 14 15 17 18 18 19 19 19 20 20 20 20 21 20 20 19 19 19 18 17 16 15
13 14 14 15 15 15 15 14 13 13 12 11 10 8 7 6 7 9 10 12 13 15 16 17 17 18 19 19 20 20 20 21 21 21 21 21 21 20 20 20 19 18 17
12 13 14 14 15 15 15 15 14 14 13 12 10 9 7 6 6 7 10 12 13 15 16 17 17 18 19 19 20 21 22 22 22 22 22 22 22 22 21 21 21 20 19
12 13 14 14 15 16 16 15 15 15 14 13 11 9 7 7 6 6 8 11 13 14 15 17 17 18 18 19 20 21 22 22 23 23 23 24 24 24 24 23 22 22 21
12 13 14 15 15 16 16 16 15 15 15 13 12 10 8 7 6 6 7 9 11 13 15 16 17 18 18 19 20 21 22 23 24 23 23 24 25 25 25 24 24 23 23
13 14 14 15 16 16 17 16 16 16 15 14 12 11 9 8 7 7 7 8 10 13 15 16 17 18 19 19 20 20 22 23 24 25 25 24 24 24 25 25 25 25 24
13 14 15 16 16 17 17 18 17 17 16 15 14 12 10 9 9 8 8 9 11 12 14 16 17 17 19 20 20 21 22 23 24 25 25 25 26 25 25 25 26 26 25
14 15 15 16 17 18 18 18 18 17 17 15 14 13 11 10 10 9 9 10 11 12 14 15 16 18 20 21 21 22 23 24 24 25 26 26 26 27 27 27 27 27 27
15 16 17 17 18 19 19 19 18 18 17 16 15 13 12 11 11 10 10 11 12 13 14 16 17 18 20 21 22 23 24 25 26 26 27 27 28 28 28 28 29 29 29
16 17 18 19 20 20 19 19 19 19 18 17 16 15 14 13 12 12 12 12 13 14 15 16 17 19 20 21 22 23 24 25 27 28 28 29 29 29 29 29 30 30 30
18 19 20 20 21 21 21 21 20 20 19 19 17 16 16 15 14 14 14 14 14 15 16 17 18 19 20 21 22 23 24 25 27 28 29 30 30 30 30 30 31 31 31
19 20 21 22 22 23 23 23 22 22 21 20 19 19 18 17 17 16 16 16 16 17 18 19 20 20 21 22 23 23 24 25 27 28 29 30 30 30 31 31 31 31 31
22 22 24 24 25 25 25 25 24 24 23 22 21 21 20 20 19 19 19 19 18 19 19 20 21 21 21 22 23 24 24 25 26 27 28 29 30 30 31 31 31 31 31
24 25 26 27 27 27 27 27 26 26 25 24 24 23 22 22 21 21 21 21 21 21 21 22 22 22 22 22 23 24 25 26 26 26 27 29 30 31 31 32 32 32 32
27 28 29 29 30 30 30 29 29 28 28 27 27 26 25 25 24 24 24 23 24 24 24 24 24 24 24 24 24 25 26 27 27 27 28 29 30 30 31 32 32 32 32
29 30 31 32 32 32 32 32 31 31 31 31 30 30 29 28 27 27 27 26 26 26 26 26 26 26 26 26 26 26 27 27 28 29 29 30 31 31 31 32 32 32 32
32 33 34 34 35 35 35 35 35 34 34 34 34 33 32 32 30 30 30 30 29 28 28 28 28 28 29 29 28 28 28 28 29 29 30 30 31 32 32 32 33 33 33
35 36 37 37 37 37 38 38 38 38 38 37 37 36 35 34 34 33 33 32 32 31 31 31 31 31 31 31 31 30 30 29 29 30 30 30 31 31 32 33 33 33 33
37 38 39 39 40 40 40 41 40 40 39 38 38 38 38 37 36 36 35 34 35 35 35 34 34 34 34 33 34 33 32 32 31 31 31 31 31 31 32 32 32 33 33
40 41 41 41 42 42 42 42 42 41 40 40 40 40 40 39 38 37 37 36 36 36 37 36 36 36 36 35 36 36 34 34 34 33 32 32 31 31 32 33 33 33 34
Wind_Direction
344 343 341 341 339 335 330 326 322 319 313 304 297 287 272 259 251 242 238 233 229 225 220 217 214 209 208 208 207 205 201 198 195 191 190 186 184 181 172 170 170 167 167
348 348 347 346 345 344 340 334 330 324 318 310 300 291 276 262 250 240 236 231 227 223 220 218 214 210 208 209 209 207 203 199 196 192 191 190 188 185 180 174 175 173 175
352 353 354 352 350 349 345 341 336 330 325 318 306 296 282 266 249 239 234 230 226 222 219 218 215 210 208 210 211 209 207 203 199 197 194 193 193 188 185 181 180 180 181
354 355 355 353 351 351 348 345 341 337 331 323 312 301 289 272 251 239 232 229 225 220 219 217 217 213 210 211 212 210 208 207 204 200 199 198 198 196 192 189 188 187 187
355 355 354 354 352 351 351 349 346 343 338 330 319 306 292 274 254 240 232 229 225 222 219 217 217 214 212 211 212 211 209 209 208 205 203 201 202 201 198 196 196 194 192
354 354 355 354 354 353 352 351 349 345 341 336 327 315 297 276 257 243 233 228 225 222 220 217 217 215 214 213 213 213 213 212 211 210 208 206 206 205 203 202 202 200 199
352 352 353 354 354 354 352 351 349 346 343 340 333 323 305 280 261 245 236 228 224 222 219 218 216 214 214 215 215 215 214 215 214 213 212 210 210 209 208 207 207 208 206
349 351 352 353 355 355 353 351 350 347 343 340 334 327 315 290 265 249 238 231 227 222 219 218 217 216 217 217 217 217 217 217 216 215 214 213 213 213 213 212 212 213 212
349 351 352 354 355 355 353 350 349 347 343 338 332 326 319 304 276 255 241 233 228 221 219 218 219 218 220 221 220 219 219 219 218 217 217 216 214 214 215 215 216 216 216
350 350 351 352 352 352 351 349 347 346 343 340 335 327 318 305 288 266 245 235 229 223 221 220 220 221 222 223 223 223 222 221 219 219 219 219 217 217 218 220 220 220 220
347 348 349 350 351 350 349 347 346 344 342 338 333 324 316 305 293 279 254 239 229 225 222 223 224 225 224 224 223 222 222 221 219 218 219 220 220 220 221 222 222 223 224
342 344 345 346 347 348 349 347 345 342 339 338 332 323 312 304 293 279 262 246 235 228 227 226 227 226 225 224 223 223 223 222 220 220 221 221 221 221 221 223 224 225 226
339 340 340 340 341 342 344 345 344 342 339 336 332 324 312 301 293 282 268 256 246 237 231 228 230 229 226 227 227 226 226 225 224 223 223 223 225 225 225 226 227 227 228
338 338 338 337 336 335 336 337 338 338 339 336 332 325 315 303 294 283 271 262 253 245 238 233 232 232 230 230 230 231 230 229 228 227 226 226 227 227 227 229 230 230 231
332 332 332 333 332 331 330 331 331 331 332 332 330 325 316 305 296 286 276 266 258 248 243 240 238 235 233 232 232 234 233 231 230 229 229 229 228 228 229 230 232 233 232
327 327 327 327 327 326 326 325 325 324 324 324 322 319 313 303 294 286 278 271 263 253 247 245 244 242 238 236 235 236 237 234 231 230 231 231 230 230 232 233 233 234 235
323 323 323 323 322 322 322 321 320 319 318 317 314 312 308 301 293 285 280 273 266 258 253 249 247 246 242 240 238 237 238 237 233 232 231 231 231 231 233 235 235 235 237
322 321 320 320 319 319 319 318 317 315 314 312 309 306 302 299 293 285 279 274 269 263 258 253 250 248 246 245 241 239 239 238 234 233 232 232 232 232 233 235 236 237 238
319 319 318 316 316 316 314 313 312 311 309 307 305 302 299 297 292 286 280 275 270 266 261 256 253 250 249 247 244 242 241 239 237 235 234 234 234 233 234 235 236 237 238
316 316 316 315 314 313 311 309 308 307 305 303 301 298 296 293 290 286 281 276 271 266 261 257 255 251 248 247 245 243 241 239 238 237 237 236 235 235 236 236 237 238 238
313 313 313 312 311 310 308 306 305 304 301 298 297 295 292 290 287 283 279 276 272 267 262 258 255 252 249 249 248 245 242 240 238 238 237 237 236 237 237 237 238 238 239
311 312 312 311 310 309 307 305 303 301 299 296 294 291 288 286 283 281 277 274 271 267 262 259 256 252 250 249 248 247 245 243 242 239 238 238 237 238 238 237 237 238 239
311 311 311 310 309 308 306 304 302 299 297 295 293 289 286 283 279 277 275 272 270 267 263 260 255 253 250 248 247 246 247 245 244 242 241 240 238 237 238 238 239 239 240
310 310 309 309 308 307 305 303 301 298 296 294 292 289 285 282 278 274 271 269 266 265 263 260 256 253 251 249 247 245 245 245 244 242 241 241 240 239 238 237 238 240 240
309 309 308 307 306 305 304 303 301 298 296 294 292 289 286 283 279 275 271 269 266 263 261 259 256 253 251 250 248 245 244 244 243 242 241 241 241 241 241 241 240 240 241
308 307 307 306 306 305 304 303 301 298 296 294 292 290 286 282 278 274 271 268 266 263 259 257 255 253 251 250 248 246 244 243 242 242 241 241 241 241 241 241 241 242 241
Height
5854 5851 5849 5846 5844 5842 5839 5837 5835 5833 5832 5831 5830 5829 5829 5830 5830 5832 5833 5835 5836 5839 5841 5844 5846 5849 5852 5855 5857 5859 5861 5864 5866 5868 5870 5872 5873 5875 5877 5879 5880 5882 5884
5852 5850 5847 5845 5842 5840 5837 5835 5833 5831 5829 5828 5827 5826 5826 5827 5827 5829 5830 5832 5834 5836 5838 5841 5844 5847 5850 5853 5855 5858 5860 5862 5865 5867 5869 5871 5873 5875 5877 5879 5881 5883 5884
5851 5848 5846 5843 5841 5838 5835 5833 5831 5829 5827 5826 5824 5824 5823 5824 5825 5826 5828 5829 5831 5834 5836 5839 5841 5844 5847 5850 5853 5856 5858 5861 5863 5866 5868 5871 5873 5875 5877 5879 5881 5883 5884
5850 5847 5845 5842 5839 5836 5834 5831 5829 5827 5825 5824 5822 5821 5821 5821 5822 5823 5825 5827 5829 5831 5833 5836 5839 5842 5845 5848 5851 5853 5856 5859 5862 5864 5867 5869 5872 5874 5876 5879 5881 5882 5884
5849 5847 5844 5841 5838 5835 5832 5830 5828 5826 5824 5822 5821 5819 5819 5819 5820 5821 5822 5824 5826 5828 5831 5834 5836 5839 5842 5845 5848 5851 5854 5857 5859 5862 5865 5868 5870 5873 5876 5878 5880 5882 5883
5848 5846 5843 5840 5837 5834 5831 5829 5827 5824 5822 5821 5819 5818 5817 5817 5817 5818 5820 5822 5824 5826 5828 5831 5834 5837 5840 5843 5845 5848 5851 5854 5857 5860 5863 5866 5868 5871 5874 5876 5879 5881 5883
5847 5845 5842 5839 5836 5833 5831 5828 5826 5823 5821 5819 5818 5816 5815 5815 5815 5816 5817 5819 5821 5823 5826 5828 5831 5834 5837 5840 5842 5845 5848 5851 5854 5857 5860 5863 5866 5869 5872 5874 5877 5879 5881
5846 5844 5841 5838 5836 5833 5830 5827 5825 5823 5820 5818 5817 5815 5814 5814 5813 5814 5815 5817 5818 5821 5823 5826 5828 5831 5834 5836 5839 5842 5845 5848 5851 5854 5857 5860 5863 5866 5869 5872 5874 5877 5879
5845 5843 5840 5838 5835 5832 5829 5827 5824 5822 5819 5817 5815 5814 5812 5812 5812 5812 5813 5814 5816 5818 5820 5823 5825 5828 5830 5833 5836 5838 5841 5844 5847 5850 5853 5856 5859 5863 5866 5869 5871 5874 5877
5844 5842 5839 5837 5834 5832 5829 5826 5823 5821 5818 5816 5814 5812 5812 5811 5810 5810 5811 5812 5813 5815 5817 5820 5822 5825 5827 5830 5832 5835 5838 5840 5843 5847 5849 5852 5856 5859 5862 5865 5868 5871 5874
5843 5841 5838 5836 5833 5831 5828 5825 5823 5820 5817 5815 5813 5811 5810 5809 5809 5809 5809 5810 5811 5813 5815 5817 5819 5821 5824 5826 5829 5831 5834 5837 5840 5842 5845 5848 5851 5854 5858 5861 5864 5867 5870
5842 5840 5837 5835 5832 5829 5827 5824 5821 5819 5816 5814 5811 5810 5808 5808 5807 5807 5807 5808 5809 5810 5812 5814 5816 5818 5820 5823 5825 5827 5830 5833 5836 5838 5841 5844 5847 5850 5853 5856 5859 5862 5865
5840 5838 5836 5833 5831 5828 5825 5823 5820 5817 5814 5812 5810 5808 5806 5806 5805 5805 5805 5806 5806 5808 5809 5811 5812 5814 5816 5819 5821 5823 5826 5828 5831 5834 5837 5840 5843 5846 5849 5852 5855 5858 5861
5839 5836 5834 5831 5829 5826 5823 5821 5818 5815 5813 5810 5808 5806 5805 5804 5803 5803 5803 5803 5804 5805 5806 5807 5809 5810 5812 5814 5817 5819 5821 5824 5826 5829 5832 5835 5838 5841 5844 5847 5849 5852 5855
5836 5834 5832 5829 5827 5824 5821 5818 5816 5813 5810 5808 5806 5804 5802 5801 5800 5800 5800 5801 5801 5802 5803 5804 5805 5806 5808 5809 5812 5814 5816 5818 5821 5824 5827 5830 5832 5835 5838 5841 5844 5846 5849
5834 5831 5829 5826 5824 5821 5818 5816 5813 5810 5808 5805 5803 5802 5800 5799 5798 5797 5797 5797 5797 5798 5799 5800 5801 5802 5803 5805 5806 5808 5811 5813 5815 5818 5821 5823 5826 5829 5832 5835 5838 5840 5843
5831 5828 5826 5823 5820 5817 5814 5812 5809 5807 5804 5802 5800 5798 5797 5795 5794 5794 5793 5793 5793 5794 5794 5795 5796 5797 5798 5799 5801 5802 5804 5806 5809 5812 5814 5817 5820 5823 5826 5828 5831 5834 5836
5827 5825 5822 5819 5816 5813 5810 5807 5805 5802 5800 5798 5796 5794 5792 5791 5790 5789 5789 5789 5789 5789 5789 5790 5790 5791 5792 5793 5795 5796 5798 5800 5802 5805 5807 5810 5813 5816 5819 5822 5824 5827 5829
5823 5820 5817 5814 5811 5808 5805 5802 5799 5797 5795 5792 5791 5789 5787 5786 5785 5784 5783 5783 5783 5783 5783 5784 5785 5785 5786 5787 5788 5790 5792 5793 5795 5798 5800 5803 5806 5809 5812 5814 5817 5819 5822
5818 5815 5811 5808 5805 5802 5799 5796 5793 5791 5788 5786 5784 5783 5781 5780 5779 5778 5777 5777 5776 5776 5777 5777 5778 5779 5780 5781 5782 5783 5785 5787 5789 5791 5793 5796 5798 5801 5804 5807 5809 5812 5814
5812 5808 5805 5801 5797 5794 5791 5788 5786 5783 5781 5779 5777 5775 5774 5772 5771 5770 5770 5769 5769 5769 5769 5770 5771 5772 5773 5774 5775 5776 5778 5780 5781 5783 5786 5788 5791 5793 5796 5799 5801 5804 5806
5805 5801 5797 5793 5790 5786 5782 5779 5777 5775 5772 5770 5768 5767 5765 5763 5762 5761 5761 5760 5760 5760 5761 5762 5763 5764 5766 5767 5768 5769 5770 5772 5774 5776 5778 5780 5783 5785 5788 5790 5793 5796 5798
5797 5793 5789 5784 5781 5777 5773 5769 5766 5764 5762 5759 5757 5756 5754 5753 5752 5751 5751 5750 5750 5751 5751 5752 5754 5755 5757 5758 5759 5761 5762 5764 5766 5767 5770 5772 5774 5777 5780 5782 5785 5787 5789
5788 5784 5779 5775 5771 5767 5762 5758 5755 5752 5749 5747 5745 5743 5742 5741 5740 5739 5739 5739 5739 5740 5740 5742 5743 5745 5746 5747 5749 5751 5753 5755 5757 5759 5761 5763 5766 5768 5771 5773 5776 5778 5781
5779 5774 5769 5764 5760 5755 5751 5746 5742 5739 5736 5734 5731 5729 5728 5727 5726 5725 5725 5726 5727 5728 5728 5730 5731 5733 5735 5737 5738 5741 5743 5746 5748 5750 5752 5755 5757 5759 5762 5765 5767 5770 5772
5769 5764 5759 5753 5748 5743 5738 5733 5729 5726 5723 5721 5718 5716 5713 5712 5711 5710 5710 5711 5713 5714 5715 5717 5719 5721 5723 5725 5727 5730 5733 5735 5738 5741 5743 5745 5748 5750 5753 5756 5758 5761 5763